EW7671 Weather Reports


time (UTC)temp
F
wind
direction
speed
knots
gust
knots
rain 1hr
in
rain 24hr
in
rain mn
in
humidity
%
barometer
mb
20260906100056 74 161 0.0 0.0 0.00 0.00 0.00 39 1022.8
20260906094551 73 166 0.0 0.0 0.00 0.00 0.00 40 1022.9
20260906093058 72 158 0.0 0.0 0.00 0.00 0.00 42 1023.1
20260906091544 70 183 0.0 0.9 0.00 0.00 0.00 44 1023.4
20260906090039 68 179 0.0 0.9 0.00 0.00 0.00 47 1023.7
20260906084535 67 192 0.0 0.0 0.00 0.00 0.00 49 1024.0
20260906083030 64 196 0.0 0.0 0.00 0.00 0.00 38 1024.2
20260906081525 61 53 0.0 0.0 0.00 0.00 0.00 24 1024.2
20260906080021 59 53 0.0 0.0 0.00 0.00 0.00 8 1024.4
20260906074517 57 54 0.0 0.0 0.00 0.00 0.00 1 1024.6
20260906073018 55 54 0.0 0.0 0.00 0.00 0.00 1 1024.5
20260906071508 53 280 0.0 0.0 0.00 0.00 0.00 1 1024.6
20260906070003 51 280 0.0 0.0 0.00 0.00 0.00 1 1024.6
20260906064601 51 280 0.0 0.0 0.00 0.00 0.00 1 1024.8
20260906063056 51 280 0.0 0.0 0.00 0.00 0.00 1 1024.7
20260906061556 51 280 0.0 0.0 0.00 0.00 0.00 1 1024.6
20260906060047 50 280 0.0 0.0 0.00 0.00 0.00 1 1024.4
20260906054547 50 280 0.0 0.0 0.00 0.00 0.00 1 1024.2
20260906053043 50 280 0.0 0.0 0.00 0.00 0.00 1 1024.1
20260906051535 50 280 0.0 0.0 0.00 0.00 0.00 1 1024.1
20260906050029 50 280 0.0 0.0 0.00 0.00 0.00 1 1024.1
20260906044525 50 280 0.0 0.0 0.00 0.00 0.00 1 1023.8
20260906043021 50 280 0.0 0.0 0.00 0.00 0.00 1 1023.7
20260906041523 51 280 0.0 0.0 0.00 0.00 0.00 1 1023.7
20260906040012 51 280 0.0 0.0 0.00 0.00 0.00 1 1023.7
20260906034510 51 280 0.0 0.0 0.00 0.00 0.00 1 1023.6
20260906033003 51 280 0.0 0.0 0.00 0.00 0.00 1 1023.4
20260906031601 51 280 0.0 0.0 0.00 0.00 0.00 1 1023.4
20260906030054 52 280 0.0 0.0 0.00 0.00 0.00 1 1023.4
20260906024555 52 280 0.0 0.0 0.00 0.00 0.00 1 1023.5
20260906023046 52 279 0.0 0.0 0.00 0.00 0.00 1 1023.5
20260906021549 52 279 0.0 0.0 0.00 0.00 0.00 1 1023.4
20260906020048 53 279 0.0 0.0 0.00 0.00 0.00 1 1023.2
20260906014543 53 279 0.0 0.0 0.00 0.00 0.00 1 1023.2
20260906013033 53 279 0.0 0.0 0.00 0.00 0.00 1 1023.3
20260906011524 53 279 0.0 0.0 0.00 0.00 0.00 1 1023.3
20260906010019 53 279 0.0 0.0 0.00 0.00 0.00 1 1023.2
20260906004517 53 279 0.0 0.0 0.00 0.00 0.00 1 1023.2
20260906003011 53 279 0.0 0.0 0.00 0.00 0.00 1 1023.2
20260906001506 54 279 0.0 0.0 0.00 0.00 0.00 1 1023.2
20260906000002 54 279 0.0 0.0 0.00 0.00 0.00 1 1023.2
20260905234611 54 279 0.0 0.0 0.00 0.00 0.00 1 1023.1
20260905233053 54 279 0.0 0.0 0.00 0.00 0.00 1 1022.9
20260905231554 54 279 0.0 0.0 0.00 0.00 0.00 1 1022.9
20260905224539 55 279 0.0 0.0 0.00 0.00 0.00 1 1022.6
20260905223036 55 279 0.0 0.0 0.00 0.00 0.00 1 1022.6
20260905221534 55 279 0.0 0.0 0.00 0.00 0.00 1 1022.5
20260905220026 56 279 0.0 0.0 0.00 0.00 0.00 1 1022.3
20260905214525 56 279 0.0 0.0 0.00 0.00 0.00 1 1022.2
20260905213018 57 279 0.0 0.0 0.00 0.00 0.00 1 1022.1
20260905211521 57 279 0.0 0.0 0.00 0.00 0.00 5 1021.8
20260905210009 58 279 0.0 0.0 0.00 0.00 0.00 8 1021.8
20260905204504 59 279 0.0 0.0 0.00 0.00 0.00 9 1021.9
20260905203103 59 279 0.0 0.0 0.00 0.00 0.00 12 1021.7
20260905201556 59 279 0.0 0.0 0.00 0.00 0.00 11 1021.6
20260905200059 60 279 0.0 0.0 0.00 0.00 0.00 13 1021.3
20260905194547 60 279 0.0 0.0 0.00 0.00 0.00 15 1021.0
20260905193101 61 279 0.0 0.0 0.00 0.00 0.00 16 1020.7
20260905191542 62 279 0.0 0.0 0.00 0.00 0.00 25 1020.2
20260905190034 63 279 0.0 0.0 0.00 0.00 0.00 28 1020.0
20260905184529 64 279 0.0 0.0 0.00 0.00 0.00 33 1019.7
20260905183025 65 279 0.0 0.9 0.00 0.00 0.00 34 1019.4
20260905181521 66 279 0.0 0.0 0.00 0.00 0.00 30 1019.2
20260905180016 66 279 0.0 0.0 0.00 0.00 0.00 35 1019.0
20260905174510 67 279 0.0 0.0 0.00 0.00 0.00 38 1018.6
20260905173007 68 279 0.0 0.0 0.00 0.00 0.00 40 1018.2
20260905171503 69 279 0.0 0.0 0.00 0.00 0.00 46 1017.9
20260905170059 70 279 0.0 0.0 0.00 0.00 0.00 48 1017.7
20260905164554 71 279 0.0 0.0 0.00 0.00 0.00 48 1017.6
20260905163051 73 5 0.0 0.0 0.00 0.00 0.00 46 1017.4
20260905161545 75 13 0.0 1.7 0.00 0.00 0.00 37 1017.2
20260905160041 75 240 0.0 0.0 0.00 0.00 0.00 44 1017.1
20260905154620 77 153 0.0 0.0 0.00 0.00 0.00 38 1016.8
20260905153037 78 239 0.0 0.0 0.00 0.00 0.00 36 1016.8
20260905151534 78 155 0.0 2.6 0.00 0.00 0.00 36 1016.8
20260905150035 79 257 0.0 0.0 0.00 0.00 0.00 36 1016.8
20260905144524 78 130 0.0 0.9 0.00 0.00 0.00 36 1016.6
20260905143022 78 68 0.0 0.9 0.00 0.00 0.00 36 1016.8
20260905141516 78 192 0.0 1.7 0.00 0.00 0.00 37 1016.8
20260905140013 77 109 0.0 6.1 0.00 0.00 0.00 38 1017.0
20260905134507 77 216 0.0 1.7 0.00 0.00 0.00 37 1017.0
20260905133005 77 236 0.0 8.7 0.00 0.00 0.00 37 1017.1
20260905131558 77 219 0.0 2.6 0.00 0.00 0.00 36 1017.1
20260905130054 77 157 0.0 1.7 0.00 0.00 0.00 37 1016.8
20260905124549 78 212 0.0 0.0 0.00 0.00 0.00 36 1017.0
20260905123048 79 319 0.0 1.7 0.00 0.00 0.00 34 1017.1
20260905121540 79 326 0.0 0.9 0.00 0.00 0.00 34 1017.0
20260905120035 78 56 0.0 0.0 0.00 0.00 0.00 33 1017.2
20260905114531 78 42 0.0 5.2 0.00 0.00 0.00 35 1017.0
20260905113027 78 5 0.0 2.6 0.00 0.00 0.00 34 1017.1
20260905111522 79 216 0.0 0.0 0.00 0.00 0.00 32 1017.2
20260905110020 78 261 0.0 7.8 0.00 0.00 0.00 35 1016.9
20260905104514 78 53 0.0 0.9 0.00 0.00 0.00 36 1017.1
20260905103010 78 335 0.0 5.2 0.00 0.00 0.00 37 1017.1
20260905101505 78 38 0.0 0.0 0.00 0.00 0.00 38 1016.9